Location: Unspecified
(48.5539°N, 71.6350°W)
Time: 05:05:22
(UTC-04:00)

ISS - Pass Details

Date: 25 January 2019
Orbit: 411 x 421 km, 51.6° (Epoch: 18 October)

Event Time Altitude Azimuth Distance (km) Brightness Sun altitude
Rises 23:30:06 0° 288° (WNW) 2,425 - -59.7°
Reaches altitude 10° 23:32:30 10° 273° (W) 1,550 - -59.8°
Maximum altitude 23:35:19 23° 219° (SW) 972 - -59.9°
Drops below altitude 10° 23:38:07 10° 165° (SSE) 1,535 - -59.9°
Sets 23:40:29 0° 151° (SSE) 2,394 - -60.0°
